Weather History for Point Salines, Grenada

Change the Weather History Date:

Wednesday, May 14, 2014

  Actual Average Record
Temperature  
Mean Temperature 81 °F -  
Max Temperature 86 °F 85 °F 89 °F (1998)
Min Temperature 76 °F 77 °F 76 °F (2012)
Cooling Degree Days 16    
Growing Degree Days 31 (Base 50)    
Moisture  
Dew Point 73 °F    
Average Humidity 73    
Maximum Humidity 83    
Minimum Humidity 59    
Precipitation  
Precipitation 0.00 in - - ()
Sea Level Pressure  
Sea Level Pressure 29.91 in    
Wind  
Wind Speed 16 mph ()    
Max Wind Speed 21 mph    
Max Gust Speed -    
Visibility 8.5 miles    
Events      
Averages and records for this station are not official NWS values.
T = Trace of Precipitation, MM = Missing Value Source: Averaged Metar Reports

Daily Weather History Graph

Daily Weather History Graph

Search for Another Location

Airport:

Trip Planner

Search our weather history database for the weather conditions in past years. The results will help you decide how hot, cold, wet, or windy it might be!

Date:

Astronomy

May. 14, 2014 Rise Set
Actual Time 5:43 AM AST 6:23 PM AST
Civil Twilight 5:20 AM AST 6:46 PM AST
Nautical Twilight 4:54 AM AST 7:12 PM AST
Astronomical Twilight 4:27 AM AST 7:39 PM AST
Moon 6:28 PM AST (5/14) 5:30 AM AST (5/14)
Length of Visible Light 13h 25m
Length of Day
12h 40m
Full, 100% of the Moon is Illuminated
May 14
Full
May 14
Full
May 21
Last Quarter
May 28
New
Jun 5
First Quarter

Hourly Weather History & Observations

Time (AST) Temp. Heat Index Dew Point Humidity Pressure Visibility Wind Dir Wind Speed Gust Speed Precip Events Conditions
12:00 AM 78.8 °F - 71.6 °F 78% 29.92 in 6.2 mi East 20.7 mph - N/A   Scattered Clouds
1:00 AM 78.8 °F - 71.6 °F 78% 29.89 in 6.2 mi East 20.7 mph - N/A   Partly Cloudy
2:00 AM 79 °F - 72 °F 72% 29.90 in 16 mi East 17.3 mph - -   Scattered Clouds
2:00 AM 78.8 °F - 71.6 °F 78% 29.89 in 6.2 mi East 17.3 mph - N/A   Partly Cloudy
3:00 AM 78.8 °F - 71.6 °F 78% 29.89 in 6.2 mi ESE 13.8 mph - N/A   Partly Cloudy
4:00 AM 78.8 °F - 71.6 °F 78% 29.89 in 6.2 mi East 20.7 mph - N/A   Partly Cloudy
5:00 AM 79 °F - 73 °F 76% 29.91 in 16 mi East 17.3 mph - -   Partly Cloudy
5:00 AM 78.8 °F - 73.4 °F 83% 29.89 in 6.2 mi East 17.3 mph - N/A   Scattered Clouds
6:00 AM 78.8 °F - 71.6 °F 78% 29.92 in 6.2 mi East 11.5 mph - N/A   Partly Cloudy
7:00 AM 80.6 °F 85.4 °F 73.4 °F 79% 29.92 in 6.2 mi East 13.8 mph - N/A   Partly Cloudy
8:00 AM 82 °F - 73 °F 69% 29.94 in 12 mi East 18.4 mph - -   Widespread Dust
8:00 AM 82.4 °F 88.2 °F 73.4 °F 74% 29.95 in 6.2 mi East 18.4 mph - N/A   Partly Cloudy
9:00 AM 84.2 °F 89.6 °F 71.6 °F 66% 29.95 in 6.2 mi ESE 19.6 mph - N/A   Partly Cloudy
10:00 AM 84.2 °F 92.3 °F 75.2 °F 74% 29.95 in 6.2 mi ESE 20.7 mph - N/A   Partly Cloudy
11:00 AM 84 °F - 74 °F 65% 29.95 in 16 mi SE 20.7 mph - -  
11:00 AM 84.2 °F 90.9 °F 73.4 °F 70% 29.95 in 6.2 mi SE 20.7 mph - N/A   Partly Cloudy
12:00 PM 86.0 °F 93.4 °F 73.4 °F 66% 29.92 in 6.2 mi SE 18.4 mph - N/A   Partly Cloudy
1:00 PM 86.0 °F 93.4 °F 73.4 °F 66% 29.92 in 6.2 mi SE 19.6 mph - N/A   Partly Cloudy
2:00 PM 86 °F - 74 °F 59% 29.90 in 14 mi ESE 17.3 mph - -   Widespread Dust
2:00 PM 86.0 °F 93.4 °F 73.4 °F 66% 29.89 in 6.2 mi ESE 17.3 mph - N/A   Partly Cloudy
3:00 PM 84.2 °F 90.9 °F 73.4 °F 70% 29.86 in 6.2 mi ESE 20.7 mph - N/A   Mostly Cloudy
4:00 PM 84.2 °F 89.6 °F 71.6 °F 66% 29.86 in 6.2 mi SE 20.7 mph - N/A   Partly Cloudy
5:00 PM 84 °F - 72 °F 60% 29.87 in 16 mi East 17.3 mph - -   Scattered Clouds
5:00 PM 84.2 °F 89.6 °F 71.6 °F 66% 29.86 in 6.2 mi East 17.3 mph - N/A   Partly Cloudy
6:00 PM 82.4 °F 88.2 °F 73.4 °F 74% 29.89 in 6.2 mi East 11.5 mph - N/A   Partly Cloudy
7:00 PM 80.6 °F 85.4 °F 73.4 °F 79% 29.89 in 6.2 mi ESE 17.3 mph - N/A   Partly Cloudy
8:00 PM 80 °F - 73 °F 74% 29.91 in 16 mi East 12.7 mph - -   Scattered Clouds
8:00 PM 80.6 °F 85.4 °F 73.4 °F 79% 29.89 in 6.2 mi East 12.7 mph - N/A   Partly Cloudy
9:00 PM 80.6 °F 85.4 °F 73.4 °F 79% 29.92 in 6.2 mi East 15.0 mph - N/A   Partly Cloudy
10:00 PM 80.6 °F 85.4 °F 73.4 °F 79% 29.92 in 6.2 mi East 11.5 mph - N/A   Partly Cloudy
11:00 PM 80 °F - 73 °F 73% 29.95 in 16 mi ESE 17.3 mph - -   Scattered Clouds
11:00 PM 80.6 °F 85.4 °F 73.4 °F 79% 29.95 in 6.2 mi ESE 17.3 mph - N/A   Partly Cloudy